Theta_e
322 322 322 322 321 320 320 320 320 320 320 320 320 320 320 320 320 320 320 321 321 319 318 316 313 312 308 303 299 296 296 295 295 295 295 294 294 294 293 293 292 293 292 292 291 291 292 292 291 291 291 291 290 289 289 289 289 289 289 289 289 288 287 287 287 288 288 288 287 287 288 288 288 288 288 289 290 291 291 291 291 291 291 292 292
323 323 323 322 321 321 321 321 321 321 320 320 321 321 321 321 321 321 321 322 321 319 318 316 313 311 308 304 299 297 295 295 295 295 295 294 294 293 293 293 292 292 292 293 292 292 292 292 291 291 291 291 291 289 289 290 289 289 289 289 289 288 287 287 286 287 288 288 287 288 288 288 288 288 289 290 291 291 291 291 291 291 292 292 292
323 323 323 322 322 321 322 322 322 322 322 322 322 322 322 322 323 323 322 322 321 318 317 315 313 311 308 303 299 296 295 295 295 294 294 294 294 293 293 293 292 292 292 293 292 292 292 291 291 291 291 291 290 289 289 290 289 289 289 288 288 288 287 287 287 287 287 287 287 287 287 288 289 290 290 291 291 292 292 292 292 292 292 292 292
323 323 323 322 322 322 322 322 322 322 322 323 323 323 323 323 323 324 323 323 321 318 317 315 313 311 308 303 298 296 296 295 295 294 294 294 294 293 293 293 292 292 292 292 292 292 292 291 290 290 290 291 290 289 289 289 289 289 288 288 288 288 287 287 287 287 287 287 287 287 287 289 290 291 291 292 292 292 292 292 292 292 292 292 293
323 323 323 323 322 321 322 322 322 322 323 323 324 324 324 324 324 324 324 324 321 318 317 315 312 311 307 302 298 296 295 295 294 294 294 294 293 293 293 293 292 292 292 292 291 291 292 291 289 290 290 290 289 288 288 288 288 288 288 288 288 287 287 287 287 287 287 287 287 287 288 290 291 291 292 292 292 292 292 292 292 292 292 292 292
323 323 323 323 322 321 322 322 323 323 323 323 324 325 325 325 324 325 325 324 321 318 317 315 312 311 306 301 298 296 295 295 294 294 294 294 293 293 292 292 292 292 292 291 291 291 291 290 289 290 290 289 288 288 288 288 288 288 288 288 288 287 287 287 287 286 286 286 286 287 289 290 291 291 291 292 292 292 292 292 292 292 292 292 292
323 323 323 323 322 322 322 322 322 323 323 323 324 325 325 325 325 325 325 324 321 318 317 315 312 310 306 301 298 296 295 295 294 294 294 293 293 293 293 292 292 292 292 291 291 291 290 289 289 289 289 289 288 288 288 288 288 288 287 287 287 287 287 287 287 286 286 286 286 288 289 290 290 291 291 291 292 292 292 292 292 292 292 292 292
323 323 323 323 322 322 322 322 322 323 323 324 325 325 325 325 325 326 326 325 321 318 317 314 312 310 305 301 298 296 295 295 294 294 294 293 293 293 293 292 292 292 292 292 291 290 290 289 289 290 289 289 289 288 288 288 288 288 287 287 287 287 287 287 286 286 286 286 287 288 289 290 290 290 291 291 291 292 292 292 292 292 292 292 292
323 323 324 324 323 322 322 323 323 324 324 324 324 325 325 325 326 326 327 325 321 318 317 314 312 310 305 301 298 296 295 295 294 294 294 293 293 293 293 293 292 292 292 292 291 291 290 290 290 290 290 290 289 289 288 288 287 287 287 287 287 287 287 287 286 286 286 286 287 288 289 289 290 290 290 291 291 291 291 291 292 291 291 291 292
323 323 324 324 323 323 323 324 324 324 324 324 324 325 324 325 326 326 327 325 320 318 317 314 312 309 304 300 298 296 295 295 294 294 294 293 293 293 293 293 292 292 292 292 291 291 291 291 291 291 290 290 289 289 288 288 288 287 287 287 287 287 286 286 286 286 286 286 287 288 288 288 289 289 290 290 291 291 291 291 291 291 291 291 292
323 323 324 324 324 323 323 324 324 324 324 324 324 324 324 325 325 326 326 324 319 318 316 314 312 309 304 300 298 296 295 295 294 294 294 293 293 293 293 293 293 292 292 292 292 292 292 292 291 291 290 290 289 289 289 288 288 288 287 287 287 286 286 286 286 286 286 286 287 287 288 288 288 289 289 290 290 290 290 291 290 290 291 291 292
323 323 324 324 324 324 323 323 324 324 324 324 324 324 324 324 326 326 325 321 318 318 316 313 312 309 304 300 298 296 295 295 295 294 294 293 293 293 293 293 293 293 293 293 293 292 292 292 292 291 290 290 289 289 289 289 288 288 288 287 287 286 286 286 286 286 286 286 286 287 287 287 288 289 289 289 289 290 290 290 290 290 291 291 292
323 324 324 324 324 324 323 323 324 324 324 324 324 324 324 325 326 326 322 319 318 317 315 313 312 309 304 300 298 296 295 295 295 294 294 294 293 293 293 293 293 293 293 293 293 292 292 292 292 291 291 290 289 289 289 289 289 288 288 287 287 287 287 286 286 286 286 286 286 286 287 287 288 288 288 288 289 289 289 289 290 291 291 291 292
324 324 324 324 324 324 324 324 324 324 324 324 324 324 324 325 326 325 321 319 318 317 315 313 311 308 304 300 298 296 296 295 295 294 294 294 294 293 293 293 293 293 293 293 293 292 292 292 292 292 291 290 289 289 289 289 289 289 288 287 287 287 287 287 287 286 286 286 286 286 286 287 287 288 288 288 288 289 289 290 291 291 292 292 292
324 324 324 324 324 324 324 324 324 324 324 324 324 324 324 325 326 325 322 319 318 317 314 312 311 308 304 300 298 296 296 295 295 295 294 294 294 294 293 293 293 293 292 292 292 292 292 292 292 291 291 290 289 289 289 289 289 289 288 288 287 287 287 287 287 286 286 286 285 286 286 287 287 287 287 288 288 289 290 290 291 292 292 292 292
324 324 324 324 324 325 325 324 324 324 324 324 324 324 325 326 326 326 323 319 317 316 314 312 311 308 304 300 298 296 296 295 295 295 294 294 294 294 293 293 293 292 292 292 292 292 292 292 291 291 290 289 289 289 289 289 288 288 288 288 288 287 287 287 287 287 286 286 285 285 286 287 287 287 288 288 289 290 290 291 292 292 292 292 291
324 324 324 324 324 325 325 324 324 324 324 325 325 325 326 326 327 327 324 319 317 315 313 312 311 307 304 301 298 296 296 295 295 295 295 294 294 294 294 293 293 293 292 292 292 292 291 291 291 290 290 289 289 289 289 289 288 289 289 288 288 288 288 288 287 287 287 286 285 285 286 287 288 288 288 289 290 290 291 291 292 291 291 291 291
325 325 325 325 325 325 325 325 325 325 325 325 325 326 327 327 327 327 323 318 316 314 313 312 310 307 304 301 298 296 296 295 295 295 295 294 294 294 294 294 293 293 292 292 292 292 291 291 290 290 289 289 289 289 289 289 288 288 288 288 288 288 287 287 287 287 287 286 286 285 286 287 288 288 289 290 290 291 291 291 291 291 291 291 291
327 326 326 326 325 325 325 325 325 325 325 325 325 327 327 328 328 326 321 317 315 314 312 311 310 307 304 301 299 297 296 295 295 295 295 294 294 294 294 294 293 293 293 292 292 292 291 291 290 290 289 289 289 289 289 289 289 288 288 288 288 288 287 287 287 287 287 287 286 285 285 287 288 289 289 290 291 291 291 291 290 290 291 291 291
328 328 327 327 326 326 325 325 325 325 325 325 326 327 327 329 328 324 319 316 315 313 312 312 310 307 304 302 300 297 296 295 295 295 295 294 294 294 294 294 293 293 293 292 292 292 291 291 290 290 289 289 289 289 289 289 289 289 288 288 288 287 287 287 287 287 287 287 286 285 285 286 288 290 290 290 291 291 290 290 290 290 290 290 291
329 328 328 327 327 327 326 326 326 326 326 326 327 328 328 329 327 322 317 316 314 313 313 312 310 307 304 302 300 298 296 295 295 295 295 294 294 294 294 294 293 293 293 292 292 292 291 291 290 290 290 289 289 289 289 289 289 289 288 288 288 287 287 287 287 286 286 287 286 286 285 286 287 289 290 290 291 291 290 290 290 290 290 290 291
328 328 328 327 327 327 327 327 326 326 326 327 327 328 328 328 325 320 317 315 314 313 313 312 310 307 305 303 301 299 297 296 295 295 295 294 294 294 294 294 294 293 293 292 292 292 291 291 290 290 290 290 290 290 289 289 289 289 288 288 288 287 287 287 287 286 286 287 286 286 286 286 286 288 289 290 290 291 290 290 290 290 290 290 291
327 327 327 327 327 327 327 327 326 326 327 327 328 328 328 326 323 319 316 315 314 313 313 312 310 308 305 304 302 300 298 297 296 295 295 295 294 294 294 294 294 294 293 292 292 291 291 291 290 290 290 290 290 290 290 290 289 288 288 288 288 288 287 287 287 286 286 287 287 286 286 285 285 287 288 290 290 290 290 290 291 291 291 291 292
326 327 327 327 326 327 326 326 326 327 327 328 328 328 327 325 322 318 316 315 313 313 313 312 311 309 306 304 303 301 299 298 297 295 295 295 295 294 294 294 294 294 293 293 292 291 291 291 290 290 290 290 290 290 290 290 290 289 288 288 288 288 288 287 287 286 286 287 287 286 286 286 285 286 288 289 290 291 291 291 292 292 292 292 292
327 327 327 327 326 326 326 326 327 327 328 328 328 327 326 324 320 317 316 314 313 313 313 312 311 309 307 305 303 302 301 299 298 296 295 295 295 295 295 295 295 294 294 293 292 292 291 291 291 290 290 290 291 291 291 290 290 289 288 288 288 288 288 287 287 286 286 287 287 286 286 286 285 285 287 289 291 292 292 292 293 293 293 293 293
326 327 328 328 327 327 327 327 327 328 328 328 327 326 325 322 319 317 315 314 314 313 313 312 312 310 308 305 304 303 301 300 299 297 296 295 296 296 296 296 295 295 295 293 293 292 291 291 291 290 290 290 291 291 291 290 290 289 288 288 288 288 288 287 287 286 286 286 286 286 286 286 286 286 287 289 290 291 292 292 293 294 294 294 293
326 327 328 328 328 327 328 328 328 328 327 326 326 325 323 321 318 316 315 314 313 313 313 312 312 311 309 306 304 303 302 301 300 299 298 297 297 297 297 297 296 296 295 294 293 292 292 291 291 291 290 290 291 291 291 290 290 290 289 288 288 288 288 287 287 286 286 286 287 287 286 286 286 286 286 288 290 291 291 292 292 293 294 293 293
324 326 326 327 327 327 328 327 327 326 325 324 323 322 320 318 316 315 314 313 313 313 313 313 312 311 310 307 305 304 303 302 302 301 299 299 299 298 298 298 297 297 296 295 294 293 292 292 291 291 291 291 291 291 291 291 290 290 289 288 288 288 288 288 287 286 286 286 287 287 287 286 286 286 286 288 290 291 291 292 292 293 293 292 292
323 325 326 327 327 326 326 326 325 324 323 321 320 318 316 315 314 314 314 314 313 313 313 312 312 311 310 308 306 304 304 304 302 301 300 299 299 299 299 298 298 297 297 296 295 294 293 293 292 291 291 291 291 291 291 291 291 290 289 288 288 288 288 288 287 287 286 286 287 287 287 286 286 286 286 287 290 291 291 291 292 293 293 292 292
323 324 325 325 325 324 324 323 322 320 318 317 315 315 314 314 313 313 313 313 313 313 312 312 311 311 310 309 307 306 305 304 303 301 301 300 299 299 298 298 298 297 297 296 296 295 294 293 292 292 291 291 291 291 291 291 290 290 289 288 288 288 288 288 287 287 286 286 286 287 287 286 286 286 285 286 289 291 291 291 292 293 293 292 291
321 322 322 322 322 321 320 318 317 315 314 313 313 313 313 313 313 313 312 312 312 312 312 311 311 311 311 310 309 308 307 305 304 303 302 301 300 299 298 298 298 297 297 297 296 295 295 294 293 292 291 291 291 291 291 291 290 290 289 289 288 288 288 288 287 287 287 286 286 287 287 286 286 286 285 286 288 291 292 292 292 293 293 292 291
318 319 319 318 318 317 315 314 313 312 312 312 312 312 313 312 312 312 312 312 312 312 312 312 311 311 311 310 310 309 308 307 306 305 304 302 301 300 299 298 298 297 297 297 296 296 295 294 293 292 291 291 291 291 292 291 290 290 289 289 288 288 288 288 287 287 287 286 286 287 287 286 286 286 285 286 288 290 292 291 292 293 293 292 292
316 316 316 316 315 314 313 313 312 312 312 312 312 312 312 312 312 313 313 312 312 312 312 312 312 312 311 311 311 310 310 308 307 306 304 303 302 300 299 299 298 298 298 297 297 296 295 295 294 293 292 291 291 292 293 292 291 290 290 289 289 288 288 288 287 287 287 286 286 286 287 286 286 286 286 285 287 289 291 291 291 292 294 293 292
316 315 315 315 315 313 313 312 312 312 312 312 312 312 312 313 313 313 313 313 312 312 312 312 312 312 312 311 311 311 310 310 309 307 306 304 303 301 300 299 299 298 298 298 297 296 296 295 294 293 292 291 291 292 293 293 292 290 290 289 289 288 288 288 288 287 287 287 286 286 286 286 286 286 286 286 286 288 290 290 290 292 293 293 292
320 318 317 316 315 315 314 313 312 312 312 312 312 313 313 313 313 313 313 313 313 313 313 312 312 312 312 312 311 311 311 310 309 308 307 305 303 302 301 300 300 299 299 299 299 298 296 295 294 293 292 292 291 292 293 294 293 291 290 290 289 289 288 288 288 287 287 287 287 286 286 286 286 286 286 286 286 287 289 290 290 290 292 292 292
322 321 320 319 318 317 316 315 314 313 313 313 312 313 313 313 313 313 313 313 313 313 313 313 313 312 312 312 312 311 311 310 309 308 307 306 304 303 302 301 301 301 300 300 299 299 298 297 295 293 292 292 292 292 292 293 293 292 290 290 289 289 289 288 288 287 287 287 287 287 286 286 287 286 286 286 286 286 287 289 289 290 291 292 292
322 322 321 321 320 320 319 318 317 316 315 314 314 314 314 314 314 314 314 314 314 314 314 314 315 314 313 312 312 311 311 310 309 308 307 306 305 304 304 303 303 303 303 302 301 300 300 299 297 295 293 292 292 292 292 293 294 293 291 290 290 289 289 289 288 288 287 287 287 287 286 286 287 287 286 286 286 286 286 288 289 290 290 291 292
322 322 322 321 321 320 320 320 319 318 317 317 316 316 315 315 315 315 315 315 315 314 314 314 315 316 316 315 314 313 312 311 311 311 310 310 308 307 306 307 307 306 306 304 302 301 301 300 299 297 295 293 292 292 292 292 293 293 292 291 290 290 289 289 288 288 287 287 287 287 287 286 286 287 286 286 286 286 286 287 289 290 290 291 291
323 322 322 321 321 321 321 321 320 319 319 319 318 318 317 317 317 317 316 317 317 316 316 316 316 317 318 318 317 316 314 313 314 314 314 314 313 310 308 307 307 307 307 305 304 303 302 301 300 299 297 295 293 292 292 292 293 293 293 292 291 290 289 289 289 288 287 287 287 287 287 286 286 287 286 286 286 286 286 286 288 290 290 290 291
322 322 322 322 322 322 321 322 321 320 320 320 319 319 318 318 318 318 317 317 318 318 317 317 318 318 318 318 317 317 315 314 313 314 314 314 314 312 309 308 308 308 308 307 306 305 304 303 301 300 299 297 294 293 292 292 292 293 293 292 291 290 289 289 289 288 288 287 287 287 287 286 286 286 286 286 286 286 286 285 287 289 290 290 291
318 319 320 321 322 322 322 322 322 321 321 320 320 320 320 319 319 318 318 318 318 318 318 318 318 319 319 318 318 317 315 314 313 312 312 313 313 312 310 310 310 310 309 307 306 305 305 305 303 301 300 298 296 294 292 292 292 292 293 293 292 290 290 289 289 289 288 287 287 287 287 287 286 286 286 286 286 286 286 285 286 289 290 290 290
308 310 311 313 316 317 318 319 320 320 320 320 320 320 320 320 319 319 319 319 319 319 319 318 318 318 318 318 317 316 315 314 313 312 312 313 314 312 311 310 309 309 309 308 307 305 305 306 304 302 301 299 297 295 293 292 292 292 293 293 292 291 290 290 289 289 288 288 287 287 287 287 287 286 286 286 286 286 286 286 286 288 290 290 290
299 300 301 302 304 305 307 311 314 316 316 317 317 317 317 317 318 318 318 318 318 318 318 318 318 318 317 317 316 315 314 314 313 313 314 314 314 312 311 310 309 309 309 308 308 307 306 306 306 305 303 300 298 296 294 292 292 292 292 293 293 291 290 290 290 289 288 288 287 287 287 287 287 286 286 286 286 286 286 286 285 287 290 291 290
297 297 297 298 299 299 300 303 306 308 310 311 312 312 313 314 315 316 316 317 317 317 317 317 317 317 316 316 315 315 314 314 314 314 314 314 313 312 312 311 310 309 308 308 307 306 306 306 307 306 304 301 300 298 295 293 292 292 292 293 293 292 290 290 290 289 288 288 288 287 287 287 287 287 286 286 286 286 286 286 285 286 288 290 290
297 297 297 300 301 303 304 305 306 307 308 309 309 310 311 312 313 314 315 315 315 315 315 316 316 316 316 316 315 315 315 315 314 314 314 314 313 313 312 312 311 310 309 308 306 305 305 305 306 306 304 302 301 299 297 294 292 292 292 293 293 292 291 290 289 289 289 288 288 287 287 287 287 287 286 286 286 286 286 286 286 285 287 289 290
296 297 299 302 304 305 307 307 307 308 308 308 309 310 310 311 312 313 313 314 314 314 314 314 315 315 315 315 314 314 314 314 314 313 313 313 312 312 312 311 311 310 309 308 306 305 304 305 306 306 304 303 301 300 298 296 293 292 292 293 294 293 291 290 289 289 289 289 288 288 287 287 287 287 286 286 286 286 286 286 286 285 286 288 290
295 297 301 304 305 306 307 306 307 308 308 307 308 308 308 309 311 311 312 313 313 313 314 314 314 314 314 314 313 313 313 313 313 312 312 312 312 312 312 311 311 310 309 308 307 306 305 305 306 306 305 303 302 301 299 297 294 292 292 293 294 294 292 290 290 289 289 289 288 288 287 287 287 287 287 286 286 286 286 286 286 286 286 287 289
295 299 303 305 305 305 305 305 305 306 306 304 304 304 305 306 307 308 309 310 311 311 312 312 313 313 313 313 312 312 312 312 311 311 311 312 312 312 311 311 310 310 309 309 309 308 307 306 306 306 305 304 302 301 300 299 296 294 293 294 295 294 292 291 290 289 289 289 289 288 288 287 287 287 287 287 286 286 286 286 286 286 286 286 287
295 298 303 305 304 303 303 303 303 303 302 301 301 302 303 303 304 304 304 305 307 308 309 310 311 311 312 312 312 312 311 311 311 311 311 312 311 311 311 311 310 310 310 309 309 308 308 307 306 306 305 304 303 302 302 302 300 297 295 295 296 295 293 292 290 289 289 289 289 288 288 287 287 287 287 287 286 286 286 286 286 286 286 286 286
295 297 301 303 303 302 302 302 302 302 300 299 301 303 302 300 299 299 299 299 300 302 303 304 305 307 308 309 310 311 311 311 311 311 312 312 311 311 311 310 310 310 309 309 309 308 308 307 307 306 305 304 304 303 302 302 302 301 298 296 296 295 295 293 291 289 289 289 289 289 288 288 287 287 287 287 286 286 286 286 286 286 286 286 286
296 296 299 301 302 303 302 302 302 302 301 300 301 302 302 299 296 295 296 296 296 297 299 299 300 301 302 303 304 305 306 307 308 309 310 310 311 311 310 310 309 309 309 308 308 308 308 307 307 306 305 304 304 304 304 303 302 302 301 299 297 295 295 294 292 290 289 289 289 289 288 288 287 287 287 287 286 286 286 286 286 286 286 286 286
Wind_Speed
15 15 14 14 14 15 15 15 15 14 13 12 11 10 11 11 11 12 13 14 14 11 10 10 11 12 13 11 9 8 7 7 7 7 6 5 4 5 4 4 4 6 6 7 7 8 9 11 13 12 13 14 14 13 14 14 15 16 17 17 18 19 22 23 25 28 28 27 27 27 24 24 25 25 26 25 22 21 22 24 25 25 26 26 24
15 15 14 14 14 14 13 12 13 13 13 13 12 11 12 12 13 15 15 16 15 11 9 10 11 12 13 11 9 8 7 6 6 6 6 6 5 5 5 4 4 5 6 7 8 9 10 11 13 13 14 15 14 14 15 15 16 18 18 19 19 20 22 24 24 27 29 29 28 27 26 28 28 27 24 23 22 22 23 24 25 26 26 26 27
15 14 14 15 13 13 11 10 10 11 12 13 14 13 13 15 16 16 17 17 15 11 10 10 11 12 13 11 9 7 7 6 6 6 6 6 5 5 5 5 5 6 6 7 9 9 10 12 13 14 15 15 15 15 17 17 19 19 19 20 20 20 21 23 24 25 28 30 29 28 29 30 28 24 21 20 21 23 24 25 26 26 27 28 28
16 15 14 14 13 13 12 11 11 12 14 15 15 15 15 16 17 16 17 17 14 11 10 10 11 12 12 10 8 7 7 6 6 6 6 5 5 5 5 6 6 6 7 7 9 9 10 12 13 14 15 15 16 17 19 19 20 20 20 20 20 21 21 22 22 23 25 29 29 29 30 30 25 20 20 21 22 23 25 26 27 28 28 29 29
18 17 15 14 14 15 14 13 14 15 16 16 16 17 17 17 17 16 17 17 15 12 10 10 11 12 12 10 9 8 8 7 6 6 6 6 5 5 6 6 7 7 7 8 9 9 10 11 13 14 15 16 17 18 19 20 20 20 21 21 20 21 21 22 23 22 23 27 29 29 29 27 23 19 20 24 26 26 26 27 29 30 30 30 30
20 20 18 16 16 16 15 15 16 18 18 18 17 18 18 19 18 17 17 17 15 13 11 10 11 12 12 10 9 9 8 8 7 6 7 7 6 6 6 6 7 7 8 8 9 9 9 10 12 13 14 16 17 19 19 20 21 21 21 21 21 22 22 23 23 23 23 26 28 29 28 26 24 22 22 24 27 29 30 31 32 32 32 32 32
21 21 20 18 17 17 17 16 17 18 18 18 18 19 19 19 19 17 17 17 16 14 12 10 11 11 11 10 9 8 8 8 8 7 7 8 7 7 6 7 7 8 8 9 9 9 8 9 11 13 14 16 18 19 21 21 22 22 22 22 22 22 22 23 24 24 25 26 27 28 27 26 25 24 23 23 24 27 31 35 36 35 35 34 33
21 22 21 20 18 18 17 17 17 17 18 18 19 20 19 19 19 18 18 18 17 15 13 11 11 11 10 9 9 8 8 8 8 7 7 7 7 7 7 7 7 8 9 9 9 8 7 8 11 14 15 17 19 21 23 24 24 23 23 23 22 22 22 23 24 24 25 26 26 25 26 26 25 25 25 25 27 28 31 34 37 37 37 37 35
22 23 23 21 19 17 17 18 19 19 20 20 20 20 20 19 19 18 18 18 16 15 13 11 11 11 10 9 9 8 8 8 7 7 6 7 8 8 7 7 8 8 9 9 8 8 7 7 10 13 15 17 19 21 23 24 24 24 24 23 22 22 22 22 23 24 25 25 25 25 26 26 26 27 28 27 29 30 31 33 35 36 38 39 37
23 24 24 22 19 18 18 19 21 21 22 21 21 21 21 20 19 19 19 18 16 16 13 11 11 11 10 10 9 8 8 8 7 7 6 6 7 8 7 7 8 8 8 9 9 8 7 6 8 12 14 16 19 20 21 22 22 23 23 23 23 22 21 21 22 23 24 24 24 25 27 27 26 27 28 28 28 30 31 33 35 37 38 38 37
24 24 24 22 20 19 19 20 21 23 23 23 23 23 22 21 19 18 19 18 17 16 14 12 12 11 10 10 10 8 7 8 7 7 7 7 7 8 7 7 8 8 8 9 9 8 7 7 9 11 13 15 18 20 21 21 21 21 20 20 21 20 19 20 21 22 22 23 23 24 26 27 27 26 27 28 29 30 31 33 35 37 37 37 38
24 24 24 23 22 21 20 21 22 23 24 25 25 25 24 22 20 19 19 18 16 16 14 12 12 11 10 10 10 9 7 7 7 7 7 7 7 7 7 7 8 8 9 9 9 9 9 9 10 12 14 16 18 19 20 20 21 21 19 18 18 17 17 18 19 20 21 22 24 24 24 26 27 26 27 29 30 31 31 33 34 35 35 35 37
25 25 24 24 24 23 22 22 23 24 26 26 26 26 25 23 21 18 17 17 16 16 15 13 12 11 10 10 10 9 8 8 8 8 7 7 7 8 7 7 7 8 9 10 10 10 10 10 11 13 15 16 18 18 19 20 20 19 18 17 16 15 15 15 16 18 19 21 23 23 23 24 26 26 26 27 29 30 31 32 32 32 33 34 35
26 26 26 26 26 25 25 25 25 26 27 27 27 27 26 24 21 18 17 17 16 15 14 14 13 12 10 10 11 10 8 8 8 8 8 8 7 8 8 7 8 8 9 10 10 10 10 10 11 13 14 16 17 18 18 19 19 19 17 16 15 14 14 14 15 17 18 20 21 22 21 21 23 24 24 24 26 27 29 31 31 32 33 33 33
27 28 28 28 28 28 27 27 27 28 29 29 29 28 27 24 21 19 18 17 16 15 15 15 14 13 11 10 11 10 9 9 9 9 8 8 8 8 8 8 8 8 9 10 11 10 10 11 11 12 14 15 17 17 18 18 19 18 16 15 13 12 13 14 16 18 20 20 21 21 20 20 20 22 22 22 22 23 25 26 27 29 31 32 33
29 29 30 30 30 30 29 29 29 30 30 31 30 28 26 24 21 19 18 17 17 16 15 15 15 13 11 11 11 11 10 9 9 9 9 8 8 8 9 8 8 9 9 10 11 10 10 11 11 11 13 15 16 17 17 17 17 17 15 14 13 12 12 13 15 17 19 20 20 19 19 19 19 20 20 18 18 21 23 23 24 27 31 34 36
30 30 31 31 30 30 30 31 31 31 32 32 30 28 26 24 21 20 19 18 17 16 15 15 15 14 13 11 12 12 11 10 10 10 9 9 9 9 9 8 8 9 10 11 11 11 10 11 11 11 12 14 15 16 16 16 16 16 16 17 16 14 13 13 13 15 17 19 20 18 17 18 18 19 17 15 15 19 22 23 25 27 31 34 35
29 29 30 30 30 31 31 32 33 33 33 31 29 27 25 23 22 20 19 18 17 15 15 16 16 15 13 12 12 13 12 11 10 10 10 10 9 9 9 9 8 9 10 12 12 11 10 11 11 11 12 13 15 15 15 15 16 17 18 19 19 18 17 16 15 16 17 19 20 19 18 18 19 20 18 14 12 15 19 22 24 27 29 31 32
28 29 29 29 30 31 32 33 34 33 33 31 29 26 24 23 22 20 19 18 16 15 16 17 17 16 14 13 13 13 12 11 11 11 11 10 10 9 9 9 9 9 10 11 12 11 10 10 11 11 11 13 14 14 14 15 16 18 19 20 21 21 20 19 19 20 20 22 22 21 20 20 20 21 21 18 13 13 16 18 21 25 28 29 30
29 28 29 29 30 31 32 32 33 33 33 31 28 25 23 22 22 20 19 18 17 17 17 17 17 16 15 14 14 13 13 12 12 12 12 11 10 10 10 10 10 10 10 11 12 11 10 10 10 11 12 12 13 13 13 14 16 17 19 21 21 22 21 20 20 21 22 23 23 22 22 22 22 22 23 21 16 13 15 17 19 22 25 28 28
29 28 29 30 31 31 31 32 32 33 33 30 27 25 23 21 21 20 19 19 18 17 17 17 17 17 16 16 15 13 13 13 13 13 12 12 11 11 11 11 11 11 11 11 12 11 11 11 11 11 12 12 12 13 13 13 14 16 19 20 21 21 21 20 19 20 21 22 22 22 23 24 23 23 24 22 18 15 17 18 19 21 22 23 24
28 29 30 31 32 33 33 32 33 33 32 30 28 26 22 20 19 19 19 19 18 18 18 18 18 18 17 17 16 14 13 13 14 14 13 13 12 12 11 11 11 12 12 12 12 12 11 11 11 12 12 12 12 12 12 13 14 16 18 20 20 19 19 19 19 20 20 21 22 22 24 25 26 26 26 24 19 17 19 19 20 22 20 18 18
27 29 30 32 33 34 34 34 34 34 31 29 27 24 20 19 20 20 20 20 19 19 19 18 19 18 18 18 17 15 14 13 14 14 15 14 13 13 12 12 12 12 12 12 12 12 12 12 12 12 13 13 13 12 12 13 15 17 18 19 19 19 18 18 18 19 20 21 21 22 24 26 28 28 28 25 21 19 20 21 22 23 19 15 15
25 28 29 31 32 33 34 34 34 32 29 26 24 22 20 20 20 21 20 20 20 20 19 19 20 19 18 18 17 16 14 13 13 15 16 16 15 15 14 13 13 13 13 13 12 12 12 12 12 13 13 13 13 13 12 13 15 17 19 19 19 18 18 17 18 20 20 21 21 22 24 26 28 29 28 25 22 20 21 21 23 24 20 15 15
21 23 26 29 30 32 34 34 32 29 26 24 23 22 21 21 20 21 21 21 21 20 20 20 20 19 19 19 18 16 15 14 14 15 17 18 18 16 15 14 14 13 13 13 13 12 12 12 12 13 13 13 13 13 12 13 16 18 19 19 19 18 18 17 18 19 21 21 21 22 23 25 26 28 27 24 20 20 22 23 25 26 21 16 16
20 21 23 25 27 30 31 30 28 25 23 23 22 21 21 20 20 20 21 21 21 21 21 20 20 20 20 19 18 17 16 16 16 16 17 19 19 17 16 15 14 14 13 12 13 13 13 13 13 13 13 12 13 13 13 14 16 18 19 20 19 18 17 17 18 19 20 21 21 21 22 23 25 26 26 23 20 20 24 26 28 28 25 21 18
18 18 19 20 22 24 25 24 23 22 21 21 21 21 20 19 20 21 22 21 22 21 21 21 21 21 20 19 18 18 18 18 18 17 18 18 18 16 16 15 15 14 13 12 13 14 14 14 14 14 14 13 13 14 15 14 15 18 20 20 19 18 17 17 17 18 19 20 21 20 20 21 23 26 26 24 20 20 23 26 28 29 27 25 23
14 14 14 16 17 19 19 19 19 19 19 19 19 19 19 19 21 21 21 21 21 20 20 20 20 20 19 18 18 19 19 18 16 14 14 15 14 14 15 15 15 15 14 13 14 15 15 14 15 15 15 15 15 15 15 15 15 18 19 20 19 17 16 16 16 17 17 18 19 20 19 20 23 25 27 25 21 20 23 25 27 28 27 25 25
12 12 13 14 16 16 17 17 17 17 17 17 17 18 18 19 20 20 20 20 21 21 21 21 20 19 19 19 19 19 19 16 13 12 13 14 15 15 16 16 16 16 16 16 17 18 17 16 16 16 16 17 16 15 16 15 16 17 19 20 19 17 16 15 15 16 17 17 19 19 19 20 22 24 26 25 21 20 22 24 26 27 26 24 24
11 12 14 14 15 15 16 16 16 16 16 17 17 18 18 19 20 21 21 21 21 21 22 21 20 20 21 21 20 20 19 17 14 15 16 16 16 17 17 17 17 18 18 19 21 21 20 19 18 17 18 18 18 16 15 15 15 16 18 19 19 18 16 15 15 17 17 17 19 19 19 19 21 23 26 26 23 21 22 24 25 26 25 24 23
11 12 13 13 14 14 15 15 15 16 17 17 18 19 19 20 21 21 21 21 22 22 22 21 21 21 22 22 21 21 20 19 18 18 18 18 18 18 18 19 20 20 21 22 24 24 23 23 21 19 19 20 19 17 15 15 14 15 17 18 19 18 16 15 15 16 17 17 18 18 18 18 19 21 24 25 23 21 22 24 25 25 23 23 22
11 12 12 13 13 14 15 15 16 17 18 19 19 20 20 21 22 21 20 21 21 22 22 22 21 22 22 22 22 22 21 20 20 21 20 20 20 20 20 21 22 23 23 25 26 26 25 25 24 22 21 21 21 18 16 15 14 14 16 18 19 19 17 15 14 16 16 17 17 17 17 17 18 19 21 23 23 21 21 24 26 24 22 21 21
11 12 12 13 14 15 16 17 18 18 19 20 20 21 22 22 22 21 21 21 22 23 23 23 23 23 24 24 24 24 23 23 23 23 23 23 23 23 23 24 25 26 27 29 30 29 27 26 25 23 22 23 22 20 17 15 14 14 15 17 18 19 18 16 15 15 16 16 16 16 16 17 17 17 19 21 22 21 21 23 25 24 20 19 20
11 12 13 14 16 17 17 18 19 19 20 21 22 23 24 24 24 24 24 25 26 26 25 25 25 26 27 27 27 26 26 26 26 26 26 26 26 26 27 28 29 30 31 32 32 31 29 28 26 24 23 24 23 22 19 16 14 13 14 16 18 19 18 17 15 14 15 16 16 15 15 16 16 16 17 20 21 20 19 21 24 23 20 19 19
13 14 14 15 17 18 19 20 21 22 23 24 24 25 26 26 27 28 28 29 30 30 29 29 29 30 30 30 30 30 29 29 30 29 29 29 29 29 31 32 33 34 34 34 33 33 32 31 29 26 25 25 24 23 21 17 15 13 13 15 17 19 19 17 15 13 14 15 16 15 15 15 15 15 16 18 20 20 19 20 22 21 19 18 18
18 18 19 19 20 20 21 22 23 24 25 26 27 28 29 30 30 31 32 32 33 33 32 31 31 33 34 33 32 32 32 32 32 32 32 32 33 33 35 36 37 37 38 37 36 34 33 32 31 29 27 26 25 24 22 19 16 13 13 15 16 18 19 18 15 13 13 14 15 14 14 14 14 14 14 15 18 19 19 18 19 18 17 17 17
22 23 25 25 25 26 26 27 28 28 28 29 30 31 32 33 33 34 34 35 35 36 34 32 33 35 36 36 36 35 34 34 34 34 35 36 37 37 38 38 38 39 41 40 38 36 34 33 32 31 29 28 26 25 24 22 18 14 13 14 16 17 18 18 16 13 12 13 14 14 13 13 13 13 13 14 16 18 18 18 17 16 16 16 16
25 27 29 29 30 31 31 32 33 32 32 33 35 35 35 35 36 36 36 36 37 38 36 33 35 35 33 31 32 33 32 31 31 32 34 36 39 41 39 36 35 38 41 41 41 39 37 35 33 31 29 28 27 26 25 23 20 16 14 14 16 17 18 18 16 13 12 12 13 13 13 13 13 12 12 13 14 16 17 17 16 14 14 15 15
20 23 27 30 32 34 35 36 37 35 33 35 37 37 37 37 37 37 35 34 35 36 35 34 36 35 30 28 28 30 30 31 30 28 29 32 36 39 40 38 37 39 41 41 40 39 38 37 34 31 30 29 28 27 26 25 22 19 16 15 16 18 18 17 16 14 12 11 12 13 12 12 12 12 12 12 13 14 15 16 14 12 12 13 13
12 15 18 22 25 28 30 32 33 33 33 34 36 37 38 38 38 39 38 37 37 37 36 37 38 36 34 33 33 33 34 36 35 34 33 34 34 34 34 34 35 37 38 38 36 34 34 35 34 33 31 30 28 27 27 26 24 21 18 16 16 17 17 17 16 14 12 11 12 12 12 12 11 11 11 11 11 12 13 15 13 10 10 11 12
11 14 15 16 17 19 20 21 22 23 24 26 28 31 33 35 35 36 36 37 36 36 36 38 39 38 36 35 35 35 36 37 38 38 39 38 37 34 31 30 30 32 33 34 34 32 32 32 32 32 32 31 29 27 27 27 25 22 19 17 17 17 17 16 15 14 12 11 11 12 12 11 11 10 9 10 10 10 11 13 13 10 8 8 10
10 12 13 14 14 15 16 16 17 18 18 18 19 21 22 24 25 26 28 30 31 32 35 36 36 35 34 33 33 35 36 37 38 38 38 37 36 35 34 34 34 33 31 29 29 29 30 30 29 29 30 30 29 28 27 28 26 23 20 18 17 17 17 16 14 14 13 11 11 12 12 11 11 10 9 9 9 9 9 11 12 9 7 7 9
12 12 12 12 12 12 12 13 14 14 14 14 14 14 15 17 18 19 21 23 25 27 30 31 31 30 31 32 33 35 37 37 37 37 36 34 34 34 34 34 35 34 32 30 28 26 26 26 26 26 27 27 28 28 27 28 27 24 21 19 18 18 17 16 14 13 13 11 11 12 12 11 10 9 8 8 8 7 8 9 11 9 7 6 7
13 12 11 10 9 8 8 9 9 10 11 12 12 13 13 14 15 16 17 19 20 22 24 25 26 26 28 31 33 34 35 35 35 35 34 32 32 33 33 33 33 33 33 33 32 28 26 26 26 26 26 25 26 26 26 27 28 25 23 21 20 19 17 15 13 13 13 12 11 11 11 11 11 9 8 8 8 7 6 7 9 9 7 6 6
13 12 10 8 6 4 3 4 5 6 7 9 10 11 12 13 13 14 14 15 16 18 19 21 21 21 23 26 29 30 31 31 32 32 32 32 32 32 32 33 34 33 32 32 31 30 29 28 26 24 24 24 24 24 25 26 28 27 24 22 21 19 17 15 13 13 14 13 12 11 11 11 11 10 9 8 7 7 6 6 7 8 7 6 6
12 11 10 8 7 6 5 5 6 7 8 9 10 10 11 11 12 12 12 13 14 14 15 16 17 18 19 21 24 26 27 28 30 30 30 30 30 31 31 32 33 33 32 30 28 28 29 27 24 22 24 23 22 23 23 24 26 27 24 22 20 18 16 16 15 14 14 14 13 11 11 11 11 10 9 8 7 7 6 5 6 7 7 6 6
14 12 10 9 9 9 8 9 10 11 12 13 12 12 12 12 12 12 12 12 13 13 14 14 14 14 15 16 19 21 22 24 26 27 26 26 26 26 26 27 29 30 30 30 27 26 26 23 20 19 22 22 21 22 21 21 23 25 24 22 20 18 17 17 16 14 13 14 14 13 11 11 11 11 10 9 8 7 6 4 4 5 6 6 5
16 13 10 10 10 10 11 13 15 16 17 17 16 15 15 15 14 14 13 13 13 13 13 13 13 13 13 13 14 16 17 18 19 20 21 21 21 20 20 21 24 26 28 28 27 26 25 23 20 18 18 18 19 20 19 18 20 22 23 22 21 18 17 18 17 15 14 14 15 14 12 11 11 11 10 9 8 8 7 5 3 4 5 5 4
19 15 13 11 11 12 13 16 18 20 19 18 17 16 17 17 16 16 16 16 15 15 15 14 14 14 14 14 14 15 16 16 17 17 18 18 19 19 18 18 20 22 24 25 25 24 25 25 23 21 18 16 16 17 17 17 17 18 20 21 20 18 18 18 18 16 15 15 15 15 14 12 11 12 11 10 9 9 8 6 4 3 4 4 3
23 18 15 14 14 14 15 17 20 21 20 18 16 17 19 19 18 16 16 16 16 16 16 16 16 16 16 17 17 17 18 18 18 18 18 19 20 20 18 17 18 19 20 22 23 23 24 25 24 22 19 16 14 14 15 15 14 14 16 18 19 18 18 18 18 18 17 16 15 15 15 13 12 12 12 10 9 10 10 7 5 4 4 3 3
26 20 16 15 15 16 16 18 19 21 21 20 18 18 20 20 18 17 17 18 17 15 15 15 16 15 16 16 16 17 17 17 18 19 19 19 19 19 18 16 16 17 18 19 20 22 23 23 23 22 20 17 14 13 14 15 14 12 11 13 17 18 19 19 19 19 18 18 16 16 15 15 14 13 12 11 10 11 11 9 7 5 5 4 3
Wind_Direction
211 213 209 207 210 214 219 226 232 239 242 239 241 251 263 270 276 283 286 287 293 306 323 331 336 339 342 344 339 342 359 1 354 349 347 352 360 1 2 356 345 350 356 359 0 356 353 359 3 4 4 3 4 2 354 348 348 349 346 341 341 341 340 338 332 331 338 341 338 343 348 349 350 352 349 345 348 350 346 344 345 347 349 350 351
210 213 213 213 210 208 212 220 226 231 233 232 238 251 264 271 278 283 283 283 291 303 316 325 332 334 337 341 337 340 358 358 346 339 340 349 357 357 352 345 348 352 349 351 355 351 349 354 357 356 355 357 2 359 354 353 352 351 348 343 343 344 341 339 334 329 331 338 341 344 349 351 351 354 354 351 351 351 346 344 345 346 346 346 347
210 212 217 219 212 203 206 213 217 228 237 242 249 256 261 268 276 281 281 282 289 298 308 317 326 328 332 335 334 340 355 356 345 337 338 345 347 346 344 341 350 352 345 345 347 344 346 350 351 350 350 354 360 358 355 357 355 350 348 346 343 343 342 338 334 328 327 334 341 345 349 352 354 358 358 354 351 348 344 343 344 345 347 346 344
216 218 221 223 218 210 210 218 225 239 249 254 259 261 261 264 271 278 279 281 286 291 298 309 319 324 328 330 330 338 351 352 345 338 336 339 342 340 338 339 345 345 340 338 338 339 344 347 346 347 349 355 358 357 357 357 353 349 347 346 343 342 342 339 335 329 326 331 340 346 350 352 356 1 357 350 347 345 342 342 343 345 347 347 346
223 226 227 225 222 217 216 224 232 241 250 258 263 264 265 265 269 275 278 280 283 285 291 303 313 321 326 327 328 333 342 343 337 335 335 337 343 340 335 336 340 340 336 333 333 337 341 345 345 345 352 359 359 357 357 354 350 348 346 345 344 342 343 341 336 330 328 333 340 346 351 353 354 356 353 345 341 342 342 341 343 345 345 345 345
227 230 230 227 224 221 221 227 234 241 250 258 263 266 269 269 269 272 275 279 281 280 285 297 309 320 324 323 322 325 331 331 327 330 333 334 338 338 336 337 336 336 333 329 333 337 341 346 346 348 358 5 1 358 357 354 351 349 346 346 345 344 344 343 337 331 332 338 343 345 350 353 350 348 348 343 338 340 342 341 341 344 344 343 344
228 230 231 229 225 225 226 231 237 244 252 259 264 268 272 272 270 269 274 280 281 277 280 292 305 316 320 317 313 315 321 321 319 321 325 327 328 329 333 334 333 333 329 329 337 339 341 347 347 353 5 7 2 358 357 355 353 350 347 346 345 344 344 343 337 334 338 343 344 344 347 350 349 345 344 342 337 339 344 342 340 341 343 341 341
227 229 230 229 227 228 231 236 242 247 253 258 262 267 271 272 269 267 273 282 280 274 275 287 302 312 316 310 305 308 311 311 310 312 315 319 318 320 325 327 329 330 325 327 338 343 341 344 348 356 4 4 1 359 357 355 352 350 348 346 344 344 344 342 339 339 342 344 344 345 346 347 347 344 343 343 341 342 346 344 340 340 339 338 338
226 228 228 231 232 231 232 237 243 245 251 256 260 266 270 270 269 268 273 280 277 270 272 284 299 309 310 302 297 298 302 303 303 304 308 312 311 313 318 322 325 326 323 322 332 346 349 341 346 356 1 1 359 358 355 353 350 349 347 345 343 344 344 343 342 343 344 344 344 347 349 347 346 345 345 346 344 342 343 343 339 338 337 335 337
225 226 229 234 236 233 232 238 243 245 250 256 260 265 267 269 271 270 274 278 272 265 269 280 294 304 303 293 290 291 295 299 299 300 305 306 306 307 312 318 320 320 320 317 320 340 356 349 347 355 359 359 358 356 353 351 349 349 346 343 343 344 345 346 347 345 343 344 347 350 350 347 346 346 344 344 343 340 340 340 337 336 337 335 335
226 227 231 235 235 234 233 237 243 246 251 255 259 263 265 268 271 272 274 274 266 261 266 276 290 299 294 285 285 287 291 297 298 299 304 303 301 303 306 313 317 316 318 314 313 331 352 354 351 354 357 359 357 354 351 348 348 347 345 344 344 345 348 350 350 346 345 347 349 352 351 346 344 345 344 343 343 340 338 337 334 334 336 334 331
227 229 233 234 234 235 236 238 242 246 250 255 258 261 263 265 268 271 274 270 260 259 264 273 286 293 289 282 283 286 290 296 297 296 298 298 296 298 302 309 315 316 315 311 314 331 346 349 349 351 355 357 355 352 349 347 346 345 344 346 345 345 350 352 350 349 349 349 349 351 351 346 343 344 345 343 342 339 336 333 332 332 333 332 330
228 232 234 234 235 237 239 241 242 246 250 253 256 258 260 263 266 271 274 266 256 256 262 271 283 291 289 282 280 285 290 292 293 292 293 295 295 297 301 309 315 317 314 311 318 332 340 342 343 346 350 351 349 348 346 345 345 343 344 345 343 342 345 347 349 352 352 351 349 349 350 346 342 342 343 342 339 336 334 332 332 332 333 333 332
231 235 235 234 235 237 240 241 242 245 249 251 254 256 258 261 265 269 271 262 254 256 263 271 282 289 288 281 279 283 287 288 289 289 290 293 295 297 302 310 315 317 316 316 322 331 333 334 337 340 343 344 343 343 343 343 344 343 342 342 342 341 340 340 348 354 354 353 350 348 347 345 341 340 340 339 336 335 335 334 335 335 334 332 331
233 236 237 236 236 237 239 240 241 244 247 250 252 253 256 260 262 267 271 264 256 258 263 270 280 287 287 280 277 280 283 283 285 286 288 292 295 298 303 310 315 318 318 318 323 328 329 329 332 334 337 337 336 337 339 342 342 340 340 343 343 340 339 344 354 357 355 354 351 348 345 344 340 338 337 336 335 336 337 337 336 334 330 328 329
235 236 237 237 237 238 239 241 242 244 246 248 249 251 255 260 262 267 271 263 254 256 261 268 279 285 284 277 273 275 277 278 281 284 286 290 294 298 303 310 315 315 315 317 321 326 326 325 327 331 332 330 330 333 338 340 340 338 341 348 348 344 342 347 356 358 354 353 353 349 345 341 336 334 336 337 338 340 340 338 337 335 332 331 333
238 238 239 239 238 239 241 242 243 244 245 246 248 251 258 261 263 269 270 260 253 256 262 269 278 282 282 276 268 269 271 273 277 282 284 288 292 296 301 308 314 313 311 313 319 323 322 321 325 328 327 324 326 332 337 338 340 342 345 350 351 349 347 347 352 355 351 352 354 350 345 342 337 338 342 342 340 344 345 343 342 341 340 338 337
240 239 238 239 239 240 241 243 245 244 245 246 249 255 261 263 266 271 267 256 253 257 261 268 275 279 281 276 266 265 267 269 274 278 281 285 289 294 299 304 309 309 306 310 315 319 319 320 323 323 321 320 324 331 334 338 346 349 349 348 348 349 349 347 351 353 349 351 355 352 348 347 345 346 349 345 337 343 348 349 346 345 344 342 339
239 239 239 239 239 239 240 243 245 245 246 248 252 259 264 265 267 269 261 251 250 253 258 266 274 278 279 275 267 265 267 268 271 275 278 283 286 290 295 299 303 303 302 305 311 314 318 319 321 320 317 317 324 329 332 339 349 352 349 346 344 345 346 347 351 353 348 348 352 352 351 351 350 350 350 348 345 347 351 351 348 347 347 344 344
240 241 242 241 241 240 241 244 246 247 248 249 253 260 262 263 265 262 252 246 248 251 256 266 274 277 278 274 267 265 265 266 269 272 274 279 283 286 290 294 298 299 298 301 306 310 315 316 316 317 316 317 323 327 332 341 347 347 345 343 340 340 342 345 350 351 347 345 348 351 352 352 352 352 352 354 357 356 356 356 353 352 351 347 347
243 244 244 244 243 243 245 247 248 248 248 249 253 256 257 260 264 257 246 245 248 251 258 267 273 277 278 275 269 262 260 262 266 269 272 277 280 283 287 290 294 295 296 299 302 306 311 313 313 315 316 317 319 323 333 342 342 341 343 341 337 337 338 341 346 348 346 344 345 350 353 353 354 355 355 357 0 359 358 359 357 356 355 351 350
244 245 245 245 244 245 246 247 248 247 247 248 250 251 252 258 261 251 242 244 249 253 259 266 272 275 277 276 270 263 259 261 265 268 272 276 278 281 284 286 289 292 293 295 299 303 307 309 310 313 316 317 316 320 333 341 339 339 342 340 336 334 335 338 342 346 345 344 345 350 354 355 356 357 356 357 360 359 357 359 0 359 1 1 359
242 243 244 244 244 244 244 245 245 244 245 247 249 251 256 262 258 246 241 244 250 254 260 266 271 275 276 276 273 268 264 264 266 269 273 275 276 278 281 283 286 289 291 293 296 300 301 304 308 311 314 316 313 316 330 337 338 340 340 339 337 334 332 335 341 345 346 345 346 351 356 358 357 356 356 357 359 0 360 0 2 3 8 15 12
241 240 240 241 242 242 242 242 242 242 244 248 253 257 261 263 255 244 242 247 252 256 261 266 272 276 278 277 273 271 271 271 270 270 273 275 275 275 277 280 283 287 291 291 292 294 296 301 305 306 309 311 308 311 324 334 337 338 338 338 338 334 330 337 343 345 346 346 347 351 356 359 357 355 356 356 356 357 358 359 3 7 14 23 20
249 246 244 243 244 244 243 241 240 241 244 251 257 261 263 261 252 243 243 249 253 258 263 267 273 278 279 278 275 274 276 276 273 270 270 272 273 274 276 280 283 286 289 289 290 293 295 297 298 299 303 306 305 309 320 330 335 336 335 336 337 333 332 339 344 344 345 347 347 349 355 358 357 355 354 353 353 354 355 357 3 9 17 27 28
265 263 258 253 250 247 243 239 238 241 248 254 259 263 264 261 252 245 247 252 256 260 264 267 273 277 278 279 280 279 279 278 277 273 269 269 272 275 277 280 283 285 287 288 289 292 294 295 296 297 301 305 306 310 317 325 332 334 333 333 334 333 333 340 345 343 344 346 346 347 352 356 357 356 354 351 353 359 360 1 4 9 16 23 27
269 267 263 257 251 245 242 240 242 246 252 256 259 261 261 255 247 245 248 253 257 261 264 268 273 277 280 283 284 283 282 280 279 277 273 273 276 278 278 279 280 281 284 287 289 290 293 297 300 301 303 306 308 311 314 320 328 331 330 330 331 332 334 340 344 342 342 345 345 344 349 355 356 356 355 352 355 2 4 6 8 11 16 21 20
270 266 260 254 249 245 244 246 250 254 257 258 259 259 256 250 248 250 255 259 263 266 269 272 275 280 284 285 283 281 280 280 284 286 281 276 275 274 275 277 279 281 284 288 290 292 295 299 302 303 305 308 310 309 309 313 322 328 327 327 329 332 335 339 341 339 339 343 343 341 347 355 358 357 356 353 356 3 6 9 12 13 19 24 20
264 260 257 253 250 250 251 252 254 256 257 257 257 256 255 254 255 259 262 265 267 270 271 272 276 280 282 281 279 277 279 285 293 290 276 270 270 272 276 280 283 284 287 289 290 292 295 299 303 304 305 306 307 306 305 309 317 323 323 324 327 330 335 338 338 337 338 343 343 341 346 355 359 358 356 354 357 4 8 12 14 15 21 28 22
259 257 255 254 252 251 251 250 251 251 251 252 254 254 256 257 258 261 262 263 265 268 269 272 275 276 277 277 277 278 282 287 288 280 273 273 276 277 280 284 286 287 288 288 289 292 295 298 301 302 303 302 302 302 302 305 312 318 319 321 324 328 335 340 337 335 338 342 342 341 345 352 358 359 356 354 356 3 9 14 15 16 22 29 23
255 255 254 253 251 250 248 246 247 248 250 252 254 255 257 258 260 262 263 264 264 266 269 273 274 273 274 277 279 281 284 285 284 281 280 281 282 283 285 287 287 288 289 288 288 291 293 296 298 300 299 299 299 300 298 299 307 313 316 319 322 325 333 340 337 332 336 340 340 340 344 350 356 359 356 353 355 1 8 14 17 18 25 31 25
256 255 255 255 253 251 249 248 249 250 252 253 254 256 257 258 260 261 263 265 266 267 269 272 273 273 274 277 279 281 284 286 286 286 287 286 285 286 287 287 287 288 287 285 285 288 291 292 295 297 297 296 296 297 296 297 302 308 312 317 321 323 328 336 336 331 333 337 337 340 344 346 352 359 356 351 354 1 7 14 18 19 25 31 29
261 260 258 257 256 255 253 253 252 253 254 254 256 257 257 259 262 264 265 266 267 268 270 271 273 275 275 276 278 281 285 286 285 285 286 287 288 287 286 285 285 284 281 280 282 286 288 290 292 295 295 294 294 293 293 294 296 302 309 314 319 321 324 330 334 331 330 332 334 339 343 343 347 357 357 351 354 2 7 12 17 19 23 29 29
271 269 266 265 265 263 261 261 261 260 260 260 260 260 261 263 267 269 270 270 270 272 274 276 278 279 280 281 282 284 287 288 288 288 288 287 287 285 283 282 280 278 277 279 282 285 287 289 292 294 292 290 291 291 291 290 291 297 306 311 315 319 321 324 330 330 327 327 331 337 342 339 343 354 357 352 354 1 7 11 16 20 24 28 28
280 278 274 272 271 269 268 267 266 265 265 265 265 267 268 270 271 272 274 275 276 278 281 283 284 285 285 286 287 288 289 289 287 287 287 285 283 282 279 277 277 277 278 281 284 287 288 288 290 291 289 287 287 288 289 288 287 293 302 307 311 316 317 318 325 328 324 323 327 334 339 337 339 350 356 352 353 0 8 12 17 22 26 28 27
275 277 276 275 275 275 274 273 271 270 270 270 270 271 272 273 274 275 277 278 280 282 285 289 290 287 285 286 287 287 287 287 286 285 284 282 280 277 275 276 278 280 281 283 285 288 290 289 288 288 286 284 285 286 287 287 285 288 297 303 306 311 312 313 318 322 321 321 323 330 335 335 336 345 352 352 354 359 7 14 19 25 29 29 30
262 267 269 271 272 274 275 276 275 274 275 274 273 273 273 274 276 277 278 280 281 283 286 292 296 294 290 289 289 287 287 287 287 285 283 280 278 276 276 279 283 284 284 284 284 286 289 291 290 287 285 283 282 282 284 285 284 284 291 298 302 305 306 308 312 317 318 318 320 325 330 331 333 341 348 352 355 359 6 14 22 28 31 30 31
259 260 261 264 267 270 272 273 273 273 275 276 276 275 275 276 277 277 278 281 283 284 284 288 293 294 293 294 294 292 289 288 287 288 289 287 283 280 280 284 288 290 289 287 285 284 286 289 291 290 286 282 280 279 281 284 284 283 286 292 297 299 301 303 306 311 314 314 315 321 325 327 330 336 343 349 354 358 5 15 24 32 32 28 28
262 261 261 261 263 265 267 269 270 270 272 275 276 276 276 277 278 277 278 280 283 283 282 283 286 290 293 295 295 292 286 280 282 291 300 301 295 287 282 285 290 293 292 291 290 288 286 287 289 290 288 282 278 277 278 281 283 283 283 287 290 293 296 299 302 305 308 309 311 315 319 322 326 330 336 345 352 356 3 13 24 34 36 31 29
275 272 269 266 265 265 266 268 270 271 271 272 273 275 275 276 277 277 277 279 281 283 283 281 284 292 298 298 297 294 288 281 280 284 293 300 301 293 286 287 294 297 295 292 292 294 295 291 287 286 287 284 279 275 274 277 280 280 278 281 285 287 290 295 298 300 303 304 307 311 314 315 319 325 330 338 346 353 1 9 21 36 43 35 29
278 274 275 275 272 271 271 271 272 273 275 276 277 277 277 277 277 277 278 279 282 285 285 285 288 294 299 299 299 297 293 288 286 285 287 294 299 296 288 286 293 300 301 296 291 292 300 301 294 287 286 285 280 275 271 271 275 277 276 277 280 281 284 290 294 295 297 300 302 306 307 308 313 319 324 330 339 349 357 4 15 33 46 40 28
293 284 285 285 281 279 280 277 272 272 275 278 281 282 281 281 280 280 282 284 286 288 288 289 292 296 300 301 300 297 293 290 288 287 290 296 301 299 292 288 289 294 299 299 293 291 298 303 300 293 287 283 278 274 270 269 271 276 276 274 274 275 279 285 290 290 292 295 297 298 301 302 306 314 319 322 330 342 351 359 9 24 41 42 29
324 313 308 304 298 295 293 288 282 279 278 279 283 287 288 288 287 286 287 289 290 291 292 294 297 301 302 302 300 296 292 291 290 291 295 301 303 302 299 297 296 295 294 295 295 295 300 304 299 290 285 281 276 272 268 266 268 272 273 270 270 271 273 280 286 286 287 289 290 290 293 296 300 307 313 315 320 332 343 353 3 15 32 41 30
334 331 329 325 318 310 298 288 287 289 289 288 291 295 295 294 293 295 296 297 298 299 300 300 301 302 302 301 299 296 295 295 296 298 301 304 304 305 306 306 304 301 296 293 291 289 295 304 300 286 279 278 276 271 267 263 264 268 270 267 266 266 269 275 282 282 281 282 283 284 287 290 293 300 304 305 309 319 331 345 355 5 21 37 31
332 334 338 341 341 336 318 302 301 303 302 300 300 300 299 297 295 295 297 301 305 308 308 307 306 305 303 302 301 300 301 302 302 302 303 304 306 309 311 310 308 305 301 298 293 284 286 301 304 287 272 273 275 273 269 264 262 265 268 266 263 264 268 273 276 275 275 279 280 278 280 284 288 293 297 296 298 305 318 336 349 356 9 30 33
333 331 333 336 340 342 342 347 348 340 329 322 320 319 319 316 312 308 306 305 306 307 307 307 308 306 306 308 308 307 308 308 306 304 305 306 309 313 313 312 310 307 303 302 298 286 285 299 305 285 267 269 277 279 274 266 260 262 266 265 261 261 265 267 267 269 273 277 277 274 272 277 281 285 288 289 288 292 302 321 341 348 356 20 38
333 327 326 330 335 338 340 342 341 337 332 330 330 330 330 329 328 327 324 319 315 311 308 306 305 302 303 309 314 316 316 314 310 309 310 310 310 310 311 312 313 311 307 306 303 294 290 299 304 285 268 269 279 284 282 271 261 261 265 263 258 257 261 263 264 266 269 273 275 273 269 269 274 278 281 282 280 281 287 302 325 337 344 7 36
332 323 321 323 326 331 336 337 332 326 326 328 330 329 327 327 328 329 326 323 323 323 321 320 318 313 310 313 318 319 318 316 313 313 312 307 302 301 305 310 312 311 309 308 309 303 298 299 302 294 281 276 280 287 290 283 269 264 264 262 257 255 258 262 263 263 263 267 273 273 268 264 267 270 274 277 275 272 274 282 299 317 327 349 22
335 320 313 316 319 323 330 333 328 323 322 326 330 331 330 327 326 326 324 322 321 320 320 321 322 321 320 319 319 317 315 313 311 308 304 301 298 296 297 299 301 304 306 308 309 309 306 303 301 298 293 290 290 290 292 290 281 272 266 262 259 257 259 262 264 262 260 262 268 270 267 262 260 262 265 269 268 266 267 270 275 289 304 325 357
337 321 309 311 316 319 322 324 323 322 322 323 328 333 334 332 329 328 329 328 326 323 321 319 317 316 315 314 312 311 310 310 310 306 301 299 299 296 293 291 293 298 303 306 306 307 308 308 305 300 295 296 302 301 292 285 284 280 270 263 260 260 261 263 264 263 259 259 262 266 266 261 256 256 259 260 259 260 263 262 260 268 278 293 325
334 322 309 305 308 310 313 314 316 319 321 321 322 324 327 330 335 340 342 339 336 335 335 333 332 330 327 323 320 317 314 310 309 306 303 300 298 295 292 293 297 300 302 303 302 301 304 307 309 306 298 293 299 307 300 288 282 280 272 263 260 260 262 264 265 263 260 258 259 261 264 262 256 253 253 254 254 256 259 257 253 255 260 265 282